CW9804 Weather Reports


time (UTC)temp
F
wind
direction
speed
knots
gust
knots
rain 1hr
in
rain 24hr
in
rain mn
in
humidity
%
barometer
mb
20260507073411 59 58 2.6 4.3 0.00 0.00 0.00 80 1013.9
20260507071911 58 77 0.9 5.2 0.00 0.00 0.00 80 1013.7
20260507070411 58 65 4.3 7.0 0.00 0.00 0.00 80 1013.9
20260507064911 58 236 0.9 2.6 0.00 0.00 0.00 81 1013.6
20260507063411 58 44 0.9 1.7 0.00 0.00 0.00 80 1013.4
20260507061911 59 320 0.0 5.2 0.00 0.00 0.00 77 1013.3
20260507060411 59 213 5.2 7.0 0.00 0.00 0.00 75 1013.3
20260507054910 59 268 2.6 8.7 0.00 0.00 0.00 75 1013.3
20260507053410 59 250 4.3 9.6 0.00 0.00 0.00 76 1013.1
20260507051910 59 192 6.1 9.6 0.00 0.00 0.00 75 1012.9
20260507050415 59 250 4.3 8.7 0.00 0.00 0.00 75 1012.8
20260507044915 58 226 5.2 10.4 0.00 0.00 0.00 75 1012.7
20260507043415 58 272 4.3 7.8 0.00 0.00 0.00 76 1012.6
20260507041915 58 252 4.3 9.6 0.00 0.00 0.00 77 1012.5
20260507040414 58 254 4.3 9.6 0.00 0.00 0.00 78 1012.5
20260507034914 58 229 6.1 11.3 0.00 0.00 0.00 78 1012.4
20260507033414 58 263 2.6 6.1 0.00 0.00 0.00 78 1012.4
20260507031914 58 259 4.3 7.0 0.00 0.00 0.00 78 1012.3
20260507030414 58 237 3.5 7.0 0.00 0.00 0.00 78 1012.4
20260507024914 57 258 3.5 7.8 0.00 0.00 0.00 79 1012.1
20260507023413 56 244 5.2 7.0 0.00 0.00 0.00 79 1012.0
20260507021913 56 215 3.5 7.0 0.00 0.00 0.00 79 1012.1
20260507020413 56 275 2.6 5.2 0.00 0.00 0.00 78 1012.1
20260507014913 56 254 2.6 5.2 0.00 0.00 0.00 78 1012.2
20260507013413 56 238 1.7 4.3 0.00 0.00 0.00 77 1011.9
20260507011913 57 267 2.6 5.2 0.00 0.00 0.00 76 1012.0
20260507010413 57 269 3.5 6.1 0.00 0.00 0.00 75 1012.0
20260507004912 58 265 2.6 7.0 0.00 0.00 0.00 75 1012.2
20260507003412 58 281 3.5 7.0 0.00 0.00 0.00 74 1012.3
20260507001912 58 254 1.7 7.0 0.00 0.00 0.00 73 1012.2
20260507000413 59 270 3.5 9.6 0.00 0.00 0.00 73 1012.3
20260506234912 59 265 2.6 8.7 0.00 0.00 0.00 73 1012.0
20260506231912 59 240 6.1 13.9 0.00 0.00 0.00 74 1012.3
20260506230412 59 259 6.1 11.3 0.00 0.00 0.00 75 1012.5
20260506224912 59 271 6.1 10.4 0.00 0.00 0.00 75 1012.4
20260506223412 59 229 3.5 7.8 0.00 0.00 0.00 76 1012.2
20260506220411 60 242 3.5 7.8 0.00 0.00 0.00 77 1012.2
20260506214915 60 229 3.5 8.7 0.00 0.00 0.00 77 1012.1
20260506213415 60 221 6.1 10.4 0.00 0.00 0.00 78 1011.9
20260506211914 60 269 3.5 7.8 0.00 0.00 0.00 77 1011.9
20260506210414 60 288 2.6 6.1 0.00 0.00 0.00 76 1011.8
20260506204914 60 310 1.7 6.1 0.00 0.00 0.00 75 1011.7
20260506203414 61 272 1.7 6.1 0.00 0.00 0.00 74 1011.5
20260506201914 61 305 2.6 7.8 0.00 0.00 0.00 74 1011.4
20260506200413 61 265 2.6 5.2 0.00 0.00 0.00 75 1011.3
20260506193413 61 258 2.6 6.1 0.00 0.00 0.00 75 1011.1
20260506191913 61 225 2.6 9.6 0.00 0.00 0.00 77 1011.0
20260506190413 59 155 2.6 5.2 0.00 0.00 0.00 82 1010.7
20260506184913 59 186 1.7 2.6 0.00 0.00 0.00 83 1010.7
20260506183413 60 310 0.0 1.7 0.00 0.00 0.00 82 1010.7
20260506181913 60 311 0.0 1.7 0.00 0.00 0.00 82 1010.5
20260506180413 61 76 0.0 0.9 0.00 0.00 0.00 81 1010.6
20260506174912 61 300 1.7 1.7 0.00 0.00 0.00 80 1010.6
20260506173412 61 300 0.0 2.6 0.00 0.00 0.00 80 1010.5
20260506171912 61 298 1.7 3.5 0.00 0.00 0.00 78 1010.5
20260506170412 62 284 1.7 2.6 0.00 0.00 0.00 78 1010.5
20260506164912 62 291 3.5 5.2 0.00 0.00 0.00 78 1010.5
20260506163412 62 302 2.6 5.2 0.00 0.00 0.00 77 1010.6
20260506161912 63 296 2.6 7.0 0.00 0.00 0.00 77 1010.7
20260506160411 61 276 2.6 6.1 0.00 0.00 0.00 79 1010.8
20260506154911 63 286 1.7 6.1 0.00 0.00 0.00 75 1010.8
20260506151911 61 309 1.7 3.5 0.00 0.00 0.00 80 1011.0
20260506143410 62 291 3.5 5.2 0.00 0.00 0.00 73 1011.0
20260506141910 63 313 2.6 8.7 0.00 0.00 0.00 71 1011.1
20260506140410 63 202 2.6 7.8 0.00 0.00 0.00 70 1011.2
20260506134910 63 206 0.0 4.3 0.00 0.00 0.00 70 1011.2
20260506133410 64 225 2.6 10.4 0.00 0.00 0.00 68 1011.3
20260506131910 64 217 0.9 8.7 0.00 0.00 0.00 70 1011.3
20260506124910 67 309 3.5 7.0 0.00 0.00 0.00 68 1011.5
20260506123410 66 224 3.5 7.8 0.00 0.00 0.00 69 1011.6
20260506114910 66 277 3.5 7.8 0.00 0.00 0.00 66 1011.8
20260506113410 66 219 5.2 11.3 0.00 0.00 0.00 65 1012.1
20260506111910 65 305 3.5 9.6 0.00 0.00 0.00 65 1012.0
20260506110410 66 158 4.3 8.7 0.00 0.00 0.00 66 1012.2
20260506104910 67 111 1.7 7.8 0.00 0.00 0.00 66 1012.3
20260506100410 64 286 3.5 7.8 0.00 0.00 0.00 72 1012.7
20260506091911 62 273 0.0 3.5 0.00 0.00 0.00 80 1012.7
20260506090411 62 315 2.6 6.1 0.00 0.00 0.00 80 1012.7
20260506084911 62 300 2.6 4.3 0.00 0.00 0.00 79 1012.5
20260506083411 62 18 1.7 3.5 0.00 0.00 0.00 79 1012.4
20260506081911 61 18 0.0 2.6 0.00 0.00 0.00 81 1012.2
20260506080411 60 313 1.7 6.1 0.00 0.00 0.00 79 1012.3